HB9EKO-12 Weather Reports


Display with metric or nautical units.
time (UTC)temp
F
wind
direction
speed
MPH
gust
MPH
rain 1hr
in
rain 24hr
in
rain mn
in
humidity
%
barometer
mb
20260507151858 76 0 1.0 0.0 0.00 0.00 0.00 32 1015.0
20260507150353 75 0 2.0 0.0 0.00 0.00 0.00 35 1015.0
20260507144848 66 0 7.0 0.0 0.00 0.00 0.00 45 1015.0
20260507143343 69 0 7.0 0.0 0.00 0.00 0.00 42 1015.0
20260507141837 66 0 1.0 0.0 0.00 0.00 0.00 44 1015.0
20260507140332 66 0 3.0 0.0 0.00 0.00 0.00 45 1015.0
20260507134827 66 0 0.0 0.0 0.00 0.00 0.00 48 1015.0
20260507133322 64 0 4.0 0.0 0.00 0.00 0.00 51 1015.0
20260507131816 63 0 2.0 0.0 0.00 0.00 0.00 52 1015.0
20260507130311 63 0 1.0 0.0 0.00 0.00 0.00 53 1015.0
20260507124806 61 0 0.0 0.0 0.00 0.00 0.00 56 1016.0
20260507123301 60 0 0.0 0.0 0.00 0.00 0.00 57 1016.0
20260507121755 60 0 1.0 0.0 0.00 0.00 0.00 55 1016.0
20260507120250 61 0 0.0 0.0 0.00 0.00 0.00 59 1016.0
20260507114745 60 0 2.0 0.0 0.00 0.00 0.00 61 1016.0
20260507113240 60 0 2.0 0.0 0.00 0.00 0.00 66 1016.0
20260507111735 59 0 0.0 0.0 0.00 0.00 0.00 69 1016.0
20260507110229 59 0 1.0 0.0 0.00 0.00 0.00 70 1016.0
20260507104724 58 0 0.0 0.0 0.00 0.00 0.00 72 1016.0
20260507101713 56 0 1.0 0.0 0.00 0.00 0.00 79 1016.0
20260507100208 55 0 0.0 0.0 0.00 0.00 0.00 80 1016.0
20260507094703 55 0 1.0 0.0 0.00 0.00 0.00 82 1016.0
20260507093158 56 0 0.0 0.0 0.00 0.00 0.00 82 1016.0
20260507091653 55 0 1.0 0.0 0.00 0.00 0.00 82 1016.0
20260507090147 54 0 1.0 0.0 0.00 0.00 0.00 87 1016.0
20260507084642 54 0 0.0 0.0 0.00 0.00 0.00 91 1016.0
20260507083137 53 0 0.0 0.0 0.00 0.00 0.00 10 1016.0
20260507081632 52 0 0.0 0.0 0.00 0.00 0.00 10 1016.0
20260507080126 51 0 1.0 0.0 0.00 0.00 0.00 10 1016.0
20260507074621 51 0 0.0 0.0 0.00 0.00 0.00 10 1016.0
20260507073116 51 0 0.0 0.0 0.00 0.00 0.00 10 1016.0
20260507071611 50 0 0.0 0.0 0.00 0.00 0.00 10 1016.0
20260507070105 50 0 0.0 0.0 0.00 0.00 0.00 10 1016.0
20260507064600 50 0 1.0 0.0 0.00 0.00 0.00 10 1015.0
20260507063055 51 0 0.0 0.0 0.00 0.00 0.00 10 1015.0
20260507061550 50 0 0.0 0.0 0.00 0.00 0.00 10 1015.0
20260507060044 49 0 0.0 0.0 0.00 0.00 0.00 10 1015.0
20260507054539 49 0 2.0 0.0 0.00 0.00 0.00 10 1015.0
20260507053034 48 0 0.0 0.0 0.00 0.00 0.00 10 1015.0
20260507050024 48 0 0.0 0.0 0.00 0.00 0.00 10 1015.0
20260507044518 47 0 0.0 0.0 0.00 0.00 0.00 10 1015.0
20260507043013 47 0 0.0 0.0 0.00 0.00 0.00 10 1014.0
20260507041508 47 0 0.0 0.0 0.00 0.00 0.00 10 1014.0
20260507040003 47 0 0.0 0.0 0.00 0.00 0.00 10 1014.0
20260507034457 48 0 0.0 0.0 0.00 0.00 0.00 10 1014.0
20260507032952 48 0 0.0 0.0 0.00 0.00 0.00 10 1014.0
20260507025942 48 0 1.0 0.0 0.00 0.00 0.00 10 1014.0
20260507024436 48 0 0.0 0.0 0.00 0.00 0.00 10 1014.0
20260507022931 48 0 0.0 0.0 0.00 0.00 0.00 10 1014.0
20260507021426 48 0 0.0 0.0 0.00 0.00 0.00 10 1014.0
20260507015921 48 0 0.0 0.0 0.00 0.00 0.00 10 1014.0
20260507014415 48 0 0.0 0.0 0.00 0.00 0.00 10 1014.0
20260507012910 48 0 0.0 0.0 0.00 0.00 0.00 10 1013.0
20260507011405 48 0 0.0 0.0 0.00 0.00 0.00 10 1013.0
20260507005900 47 0 0.0 0.0 0.00 0.00 0.00 10 1013.0
20260507004354 46 0 0.0 0.0 0.00 0.00 0.00 10 1013.0
20260507002849 46 0 0.0 0.0 0.00 0.00 0.00 10 1013.0
20260507001344 46 0 0.0 0.0 0.00 0.00 0.00 10 1013.0
20260506235839 46 0 0.0 0.0 0.00 0.00 0.00 10 1013.0
20260506234334 46 0 0.0 0.0 0.00 0.00 0.00 10 1013.0
20260506232828 46 0 0.0 0.0 0.00 0.00 0.00 10 1013.0
20260506231323 47 0 0.0 0.0 0.00 0.00 0.00 10 1013.0
20260506225818 47 0 0.0 0.0 0.00 0.00 0.00 10 1013.0
20260506224313 47 0 0.0 0.0 0.00 0.00 0.00 10 1013.0
20260506222807 47 0 0.0 0.0 0.00 0.00 0.00 10 1013.0
20260506221302 47 0 0.0 0.0 0.00 0.00 0.00 10 1013.0
20260506215757 47 0 0.0 0.0 0.00 0.00 0.00 10 1013.0
20260506214252 47 0 0.0 0.0 0.00 0.00 0.00 10 1013.0
20260506212746 48 0 0.0 0.0 0.00 0.00 0.00 10 1013.0
20260506211241 48 0 0.0 0.0 0.00 0.00 0.00 10 1013.0
20260506205736 48 0 0.0 0.0 0.00 0.00 0.00 10 1013.0
20260506204231 49 0 0.0 0.0 0.00 0.00 0.00 10 1013.0
20260506202725 49 0 0.0 0.0 0.00 0.00 0.00 10 1013.0
20260506201220 49 0 0.0 0.0 0.00 0.00 0.00 10 1013.0
20260506195715 50 0 0.0 0.0 0.00 0.00 0.00 96 1012.0
20260506194210 50 0 0.0 0.0 0.00 0.00 0.00 97 1012.0
20260506192704 50 0 0.0 0.0 0.00 0.00 0.00 97 1012.0
20260506191159 50 0 3.0 0.0 0.00 0.00 0.00 96 1012.0
20260506185654 51 0 0.0 0.0 0.00 0.00 0.00 94 1012.0
20260506184149 51 0 0.0 0.0 0.00 0.00 0.00 91 1012.0
20260506182644 52 0 0.0 0.0 0.00 0.00 0.00 87 1011.0
20260506181138 52 0 0.0 0.0 0.00 0.00 0.00 86 1011.0
20260506175633 52 0 0.0 0.0 0.00 0.00 0.00 85 1011.0
20260506174128 53 0 0.0 0.0 0.00 0.00 0.00 82 1011.0
20260506172623 55 0 5.0 0.0 0.00 0.00 0.00 79 1011.0
20260506171117 54 0 4.0 0.0 0.00 0.00 0.00 83 1011.0
20260506165612 56 0 8.0 0.0 0.00 0.00 0.00 78 1011.0
20260506164107 55 0 0.0 0.0 0.00 0.00 0.00 80 1011.0
20260506162602 55 0 2.0 0.0 0.00 0.00 0.00 81 1010.0
20260506161056 54 0 2.0 0.0 0.00 0.00 0.00 88 1010.0
20260506154046 52 0 3.0 0.0 0.00 0.00 0.00 94 1010.0
20260506152541 53 0 1.0 0.0 0.00 0.00 0.00 92 1011.0